Weather in Molochnyy

Russia / Murmansk Oblast     68°51′09″N   33°01′02″E
temp.,
°C
wind,
m/s
gust,
m/s
humid.,
%
clouds,
%
prec.,
mm/h
press.,
hPa
HPBL,
m
28 february, sun
sun2800:00−8s239472 0.0 100638
03:00−6s259686 0.1 1006182
06:00−4ssw269798 0.6 1005252
09:00−5sw299698 0.9 1005304
12:00−1wsw389599 0.5 1004352
15:00+1sw399599 0.5 1004373
18:000wsw51388100 0.0 1002509
21:00+1wsw51399100 0.4 1000634
1 march, mon
mon100:00+2wsw51596100 0.0 997833
03:00+2w51496100 0.5 995858
06:00+1w5148543 0.0 993819
09:000w6148954 0.0 993756
12:000w6138271 0.0 9921006
15:00+1w6147985 0.1 9921237
18:00−1wsw6157970 0.0 988979
21:00−1wnw10199478 2.4 9861292
2 march, tue
tue200:000nw81592100 2.1 9891129
03:00−5wnw289289 2.4 994231
06:00−6w249498 0.0 996106
09:00−5wnw3109698 0.3 999477
12:00−4nw6128172 0.2 10011083
15:00−4nw6128136 0.2 1004955
18:00−4nw5128665 0.3 1006923
21:00−7nw5148540 0.3 1007610
3 march, wed
wed300:00−8wnw5138946 0.0 1007473
03:00−9w3119042 0.0 1007285
06:00−10wsw289649 0.0 1004206
09:00−5w4119474 0.6 1001637
12:00−4wnw4795100 0.8 1000558
15:00−5n2690100 1.1 998656
18:00−10nw129342 0.0 99721
21:00−12wnw229445 0.0 99722
4 march, thu
thu400:00−10wnw3109595 0.0 997316
03:00−8nw4119296 0.3 996666
06:00−7nw61391100 0.3 994889
09:00−7wnw3895100 0.6 994335
12:00−5n4883100 0.8 9961126
15:00−6nne4888100 1.3 9991044
18:00−8n2596100 0.3 1001167
21:00−7nne4995100 1.2 1002704